Location: Azul
(36.7830°S, 59.8500°W)
Time: 18:17:46
(UTC-03:00)

FO-29 - Pass Details

Date: 27 October 2021
Orbit: 799 x 1322 km, 98.5° (Epoch: 05 December)

Event Time Altitude Azimuth Distance (km) Brightness Sun altitude
Rises 23:07:31 0° 176° (S) 4,130 13.5 -35.2°
Reaches altitude 10° 23:10:14 10° 182° (S) 3,220 12.8 -35.5°
Maximum altitude 23:17:08 41° 248° (WSW) 1,813 11.0 -36.1°
Enters shadow 23:20:00 31° 290° (WNW) 2,149 11.2 -36.4°
